This demonstration page uses our WeatherBlox Daily Observations layout. Learn more.

Hourly Observations for August 13, 2017

Temp ( °F °C ) Dew Point ( °F °C ) Humidity (%) Winds ( mph kmh ) Pressure ( in mb ) Visibility ( mi km ) Precip ( " mm )
12:15 am 00:15 Cloudy with Light Rain 66 18.9 64 17.6 92 92 S 16 26 29.94 1014 10 16.09344 0.02 0.508
12:35 am 00:35 Cloudy with Rain 67 19.2 64 18 93 93 S 22 35 29.85 1011 7 11.265408 0.03 0.762
12:55 am 00:55 Mostly Cloudy with Light Rain 66 19 64 17.6 92 92 S 12 19 29.91 1013 10 16.09344 0.03 0.762
1:15 am 01:15 Mostly Cloudy 66 19.1 64 18 93 93 S 10 17 29.91 1013 10 16.09344 0 0
1:35 am 01:35 Cloudy 66 19 64 17.7 92 92 SSE 5 7 29.94 1014 10 16.09344 0 0
1:55 am 01:55 Cloudy 66 19 64 17.7 92 92 SE 6 9 29.94 1014 10 16.09344 0 0
2:15 am 02:15 Cloudy 65 18.6 64 17.5 93 93 ESE 5 7 29.94 1014 10 16.09344 0 0
2:35 am 02:35 Cloudy 65 18.5 64 17.5 94 94 SE 5 7 29.94 1014 10 16.09344 0 0
2:55 am 02:55 Cloudy 65 18.5 64 17.5 94 94 ESE 5 7 29.91 1013 10 16.09344 0 0
3:15 am 03:15 Cloudy 65 18.3 64 17.5 95 95 SE 5 7 29.91 1013 10 16.09344 0 0
3:35 am 03:35 Cloudy 65 18.6 64 17.6 94 94 S 7 11 29.91 1013 10 16.09344 0 0
3:55 am 03:55 Mostly Cloudy 65 18.5 63 17.2 92 92 S 7 11 29.91 1013 10 16.09344 0 0
4:15 am 04:15 Mostly Cloudy 65 18.2 63 17 93 93 S 6 9 29.91 1013 10 16.09344 0 0
4:35 am 04:35 Partly Cloudy 64 18 62 16.7 92 92 S 6 9 29.91 1013 10 16.09344 0 0
4:55 am 04:55 Mostly Cloudy 64 17.8 62 16.7 93 93 S 5 7 29.91 1013 10 16.09344 0 0
5:15 am 05:15 Mostly Cloudy 64 17.8 62 16.7 93 93 S 7 11 29.88 1012 10 16.09344 0 0
5:35 am 05:35 Cloudy 65 18.1 62 16.8 92 92 S 8 13 29.88 1012 10 16.09344 0 0
5:55 am 05:55 Cloudy 65 18.4 62 16.9 91 91 S 10 17 29.88 1012 10 16.09344 0 0
6:15 am 06:15 Cloudy 65 18.2 62 16.7 91 91 S 9 15 29.88 1012 10 16.09344 0.01 0.254
6:35 am 06:35 Mostly Cloudy 64 18 62 16.5 91 91 S 8 13 29.88 1012 10 16.09344 0.01 0.254
6:55 am 06:55 Cloudy 64 18 62 16.5 91 91 S 8 13 29.88 1012 10 16.09344 0.01 0.254
7:15 am 07:15 Cloudy 65 18.1 62 16.7 92 92 SSW 10 17 29.88 1012 10 16.09344 0 0
7:35 am 07:35 Cloudy 65 18.5 63 17 91 91 SSW 12 19 29.88 1012 10 16.09344 0 0
7:55 am 07:55 Cloudy 65 18.5 63 17 91 91 SSW 12 19 29.88 1012 10 16.09344 0 0
8:15 am 08:15 Cloudy 65 18.4 63 17 92 92 SSW 12 19 29.88 1012 7 11.265408 0 0
8:35 am 08:35 Cloudy with Mist and Fog 65 18.2 63 17 93 93 S 9 15 29.88 1012 5 8.04672 0 0
8:55 am 08:55 Cloudy 65 18.5 63 17.2 92 92 SSW 7 11 29.88 1012 7 11.265408 0 0
9:15 am 09:15 Cloudy 65 18.6 63 17.2 92 92 SSW 7 11 29.88 1012 7 11.265408 0 0
9:35 am 09:35 Cloudy 66 19 63 17.4 91 91 SSW 9 15 29.85 1011 10 16.09344 0 0
9:55 am 09:55 Cloudy 67 19.3 63 17.3 88 88 SSW 8 13 29.85 1011 10 16.09344 0 0
10:15 am 10:15 Cloudy 67 19.5 63 17.4 88 88 S 9 15 29.85 1011 10 16.09344 0 0
10:35 am 10:35 Cloudy 68 20.1 64 17.6 86 86 S 8 13 29.85 1011 10 16.09344 0 0
10:55 am 10:55 Cloudy 69 20.5 64 17.5 83 83 S 8 13 29.85 1011 10 16.09344 0 0
11:15 am 11:15 Cloudy 70 21 64 17.6 81 81 S 7 11 29.85 1011 10 16.09344 0 0
11:35 am 11:35 Cloudy 71 21.5 64 17.5 78 78 S 7 11 29.85 1011 10 16.09344 0 0
11:55 am 11:55 Mostly Cloudy 72 22.2 64 17.6 75 75 S 8 13 29.85 1011 10 16.09344 0 0
12:15 pm 12:15 Cloudy 74 23.1 65 18.3 74 74 S 8 13 29.83 1010 10 16.09344 0 0
12:35 pm 12:35 Partly Cloudy 75 23.7 64 17.7 69 69 S 7 11 29.83 1010 10 16.09344 0 0
12:55 pm 12:55 Mostly Cloudy 76 24.7 64 17.8 66 66 S 8 13 29.83 1010 10 16.09344 0 0
1:15 pm 13:15 Mostly Cloudy 77 25.1 64 17.6 63 63 SSW 9 15 29.8 1009 10 16.09344 0 0
1:35 pm 13:35 Mostly Cloudy 78 25.7 64 17.7 61 61 S 10 17 29.8 1009 10 16.09344 0 0
1:55 pm 13:55 Partly Cloudy 78 25.6 63 17.3 60 60 SSE 10 17 29.8 1009 10 16.09344 0 0
2:15 pm 14:15 Partly Cloudy 79 26.1 64 17.7 60 60 S 12 19 29.77 1008 10 16.09344 0 0
2:35 pm 14:35 Partly Cloudy 80 26.5 63 17.4 57 57 S 14 22 29.77 1008 10 16.09344 0 0
2:55 pm 14:55 Partly Cloudy 80 26.6 64 17.7 58 58 S 13 20 29.77 1008 10 16.09344 0 0
3:15 pm 15:15 Partly Cloudy 81 27.1 64 17.8 57 57 SSE 12 19 29.77 1008 10 16.09344 0 0
3:35 pm 15:35 Partly Cloudy 82 27.5 63 17.4 54 54 S 10 17 29.74 1007 10 16.09344 0 0
3:55 pm 15:55 Partly Cloudy 82 27.6 63 17 52 52 S 10 17 29.74 1007 10 16.09344 0 0
4:15 pm 16:15 Partly Cloudy 82 28 63 17 51 51 S 9 15 29.74 1007 10 16.09344 0 0
4:35 pm 16:35 Partly Cloudy 82 28 63 17.2 52 52 S 8 13 29.74 1007 10 16.09344 0 0
4:55 pm 16:55 Sunny 83 28.3 62 16.9 50 50 S 9 15 29.74 1007 10 16.09344 0 0
5:15 pm 17:15 Partly Cloudy 83 28.3 62 16.7 49 49 S 9 15 29.71 1006 10 16.09344 0 0
5:35 pm 17:35 Sunny 83 28.3 63 17.1 51 51 S 8 13 29.71 1006 10 16.09344 0 0
5:55 pm 17:55 Sunny 83 28.5 62 16.6 49 49 SSW 8 13 29.68 1005 10 16.09344 0 0
6:15 pm 18:15 Sunny 83 28.4 62 16.8 49 49 S 6 9 29.68 1005 10 16.09344 0 0
6:35 pm 18:35 Sunny 82 27.8 64 17.9 55 55 Calm 29.68 1005 10 16.09344 0 0
6:55 pm 18:55 Sunny 81 27 66 19 62 62 Calm 29.68 1005 10 16.09344 0 0
7:15 pm 19:15 Sunny 80 26.5 68 19.8 67 67 SE 3 6 29.68 1005 10 16.09344 0 0
7:35 pm 19:35 Sunny 77 25 70 21 79 79 E 5 7 29.68 1005 10 16.09344 0 0
7:55 pm 19:55 Sunny 76 24.2 69 20.7 81 81 E 6 9 29.71 1006 10 16.09344 0 0
8:15 pm 20:15 Sunny 74 23.5 68 20.2 82 82 E 7 11 29.71 1006 10 16.09344 0 0
8:35 pm 20:35 Sunny 74 23.4 68 20.2 82 82 ESE 6 9 29.71 1006 10 16.09344 0 0
8:55 pm 20:55 Clear 73 22.7 68 20 85 85 ESE 7 11 29.71 1006 10 16.09344 0 0
9:15 pm 21:15 Clear with Nearby Thunderstorms 71 21.8 68 19.9 89 89 E 8 13 29.71 1006 10 16.09344 0 0
9:35 pm 21:35 Clear with Nearby Thunderstorms 71 21.4 67 19.7 90 90 E 8 13 29.77 1008 10 16.09344 0 0
9:55 pm 21:55 Clear with Nearby Thunderstorms 71 21.5 67 19.4 88 88 E 7 11 29.77 1008 10 16.09344 0 0
10:15 pm 22:15 Clear 69 20.8 67 19.2 91 91 E 8 13 29.8 1009 10 16.09344 0 0
10:35 pm 22:35 Clear with Nearby Thunderstorms 69 20.8 66 19 90 90 E 9 15 29.8 1009 10 16.09344 0 0
10:55 pm 22:55 Clear with Nearby Thunderstorms 69 20.6 66 18.7 89 89 ESE 10 17 29.8 1009 10 16.09344 0 0
11:15 pm 23:15 Clear 70 21 65 18.5 86 86 SE 9 15 29.8 1009 10 16.09344 0 0
11:35 pm 23:35 Clear with Nearby Thunderstorms 69 20.8 65 18.5 87 87 S 10 17 29.77 1008 10 16.09344 0 0
11:55 pm 23:55 Partly Cloudy with Nearby Thunderstorms 70 21 65 18.4 85 85 S 13 20 29.77 1008 10 16.09344 0 0

Powered by AerisWeather